Meteo Giornale » Osservazioni meteo Stati Uniti (USA) » Lake Havasu City
ore: 01:35 - Osservazioni Meteo Lake Havasu City
Lat. 34° 34' N Lon. 114° 22' W Alt. 238 metri s.l.m.
31 °C
Sereno
Temp. 24 Ore
31 °C
38 °C
Sud-Est
18.5 Km/h
Dew point 17 °C
Umidità 43 %
Visibilità 10 Km
Il sole sorge alle ore 06:10
Il sole tramonta alle ore 19:03
| Data e Ora | Cielo e Fenomeni | T °C | DP °C | Um. % | Pres. hPa | Vis. km | Vento km/h | |
|---|---|---|---|---|---|---|---|---|
| Oggi h: 01:35 | Sereno | 31 | 17 | 43 | 1010 | 10 | SE 18.5 | |
| Oggi h: 01:15 | Sereno | 31 | 17 | 43 | 1011 | 10 | S/SE 16.7 | |
| Oggi h: 00:55 | Poco Nuvoloso | 31 | 17 | 43 | 1011 | 10 | S 11.1 | |
| Oggi h: 00:35 | Poco Nuvoloso | 32 | 17 | 40 | 1010 | 10 | SE 16.7 | |
| Oggi h: 00:15 | Poco Nuvoloso | 31 | 17 | 43 | 1010 | 10 | S/SE 20.3 | |
| Ieri h: 23:55 | Sereno | 31 | 18 | 45 | 1010 | 10 | S 18.5 | |
| Ieri h: 23:35 | Sereno | 31 | 18 | 45 | 1010 | 10 | S 18.5 | |
| Ieri h: 23:15 | Sereno | 31 | 19 | 48 | 1010 | 10 | S/SO 11.1 | |
| Ieri h: 22:55 | Sereno | 31 | 18 | 45 | 1010 | 10 | S 11.1 | |
| Ieri h: 22:35 | Sereno | 31 | 18 | 45 | 1010 | 10 | S 13 | |
| Ieri h: 22:15 | Sereno | 31 | 18 | 45 | 1010 | 10 | S 14.8 | |
| Ieri h: 21:55 | Sereno | 31 | 18 | 45 | 1010 | 10 | S/SO 13 | |
| Ieri h: 21:35 | Sereno | 31 | 18 | 45 | 1010 | 10 | S 16.7 | |
| Ieri h: 21:15 | Sereno | 32 | 18 | 43 | 1010 | 10 | S 16.7 | |
| Ieri h: 20:55 | Sereno | 32 | 16 | 38 | 1010 | 10 | S/SE 22.2 | |
| Ieri h: 20:35 | Sereno | 32 | 15 | 35 | 1009 | 10 | S 18.5 | |
| Ieri h: 20:15 | Sereno | 33 | 15 | 33 | 1009 | 10 | S/SE 22.2 | |
| Ieri h: 19:55 | Sereno | 33 | 15 | 33 | 1009 | 10 | SE 29.6 | |
| Ieri h: 19:35 | Sereno | 33 | 16 | 36 | 1008 | 10 | SE 35.2 | |
| Ieri h: 19:15 | Sereno | 34 | 16 | 34 | 1008 | 10 | S/SE 27.8 | |
| Ieri h: 18:55 | Sereno | 34 | 17 | 36 | 1008 | 10 | S/SE 29.6 | |
| Ieri h: 18:35 | Sereno | 35 | 16 | 32 | 1008 | 10 | SE 33.3 | |
| Ieri h: 18:15 | Sereno | 35 | 17 | 34 | 1008 | 10 | SE 31.5 | |
| Ieri h: 17:55 | Sereno | 36 | 15 | 28 | 1008 | 10 | SE 35.2 | |
| Ieri h: 17:35 | Sereno | 36 | 15 | 28 | 1008 | 10 | SE 40.7 | |
| Ieri h: 17:15 | Sereno | 37 | 17 | 30 | 1008 | 10 | S/SE 42.6 | |
| Ieri h: 16:55 | Sereno | 37 | 18 | 32 | 1008 | 10 | S/SE 40.7 | |
| Ieri h: 16:35 | Sereno | 38 | 17 | 29 | 1008 | 10 | SE 40.7 | |
| Ieri h: 16:15 | Sereno | 38 | 17 | 29 | 1008 | 10 | SE 37 | |
| Ieri h: 15:55 | Sereno | 38 | 17 | 29 | 1008 | 10 | SE 29.6 | |
| Ieri h: 15:35 | Sereno | 38 | 18 | 31 | 1008 | 10 | SE 37 | |
| Ieri h: 15:15 | Poco Nuvoloso | 38 | 18 | 31 | 1008 | 10 | S/SE 42.6 | |
| Ieri h: 14:55 | Sereno | 38 | 18 | 31 | 1008 | 10 | SE 27.8 | |
| Ieri h: 14:35 | Sereno | 38 | 17 | 29 | 1009 | 10 | S/SE 29.6 | |
| Ieri h: 14:15 | Sereno | 38 | 17 | 29 | 1009 | 10 | SE 27.8 | |
| Ieri h: 13:55 | Poco Nuvoloso | 38 | 17 | 29 | 1009 | 10 | S/SE 37 | |
| Ieri h: 13:35 | Poco Nuvoloso | 38 | 17 | 29 | 1010 | 10 | S 29.6 | |
| Ieri h: 13:15 | Poco Nuvoloso | 37 | 17 | 30 | 1010 | 10 | S/SE 31.5 | |
| Ieri h: 12:55 | Sereno | 37 | 17 | 30 | 1010 | 10 | SE 25.9 | |
| Ieri h: 12:35 | Sereno | 37 | 17 | 30 | 1010 | 10 | S/SE 33.3 | |
| Ieri h: 12:15 | Sereno | 37 | 16 | 28 | 1010 | 10 | SE 31.5 | |
| Ieri h: 11:55 | Sereno | 36 | 16 | 30 | 1011 | 10 | SE 35.2 | |
| Ieri h: 11:35 | Sereno | 36 | 18 | 34 | 1011 | 10 | SE 33.3 | |
| Ieri h: 11:15 | Sereno | 36 | 17 | 32 | 1011 | 10 | SE 35.2 | |
| Ieri h: 10:55 | Sereno | 35 | 17 | 34 | 1011 | 10 | SE 40.7 | |
| Ieri h: 10:35 | Sereno | 34 | 16 | 34 | 1011 | 10 | S/SE 35.2 | |
| Ieri h: 10:15 | Poco Nuvoloso | 34 | 16 | 34 | 1011 | 10 | S/SE 31.5 | |
| Ieri h: 09:55 | Sereno | 34 | 16 | 34 | 1011 | 10 | S/SE 35.2 | |
| Ieri h: 09:35 | Sereno | 33 | 17 | 38 | 1011 | 10 | S/SE 31.5 | |
| Ieri h: 09:15 | Sereno | 33 | 17 | 38 | 1011 | 10 | S/SE 27.8 | |
| Ieri h: 08:55 | Poco Nuvoloso | 32 | 16 | 38 | 1010 | 10 | S/SE 31.5 | |
| Ieri h: 08:35 | Sereno | 33 | 16 | 36 | 1011 | 10 | S/SE 29.6 | |
| Ieri h: 08:15 | Sereno | 33 | 17 | 38 | 1010 | 10 | S/SE 27.8 | |
| Ieri h: 07:55 | Sereno | 32 | 17 | 40 | 1010 | 10 | S/SE 25.9 | |
| Ieri h: 07:35 | Sereno | 32 | 17 | 40 | 1010 | 10 | S/SE 22.2 | |
| Ieri h: 07:15 | Nuvoloso | 32 | 17 | 40 | 1010 | 10 | S/SE 22.2 | |
| Ieri h: 06:55 | Molto Nuvoloso | 32 | 17 | 40 | 1009 | 10 | SE 22.2 | |
| Ieri h: 06:35 | Nuvoloso | 31 | 16 | 40 | 1009 | 10 | SE 20.3 | |
| Ieri h: 06:15 | Sereno | 31 | 17 | 43 | 1008 | 10 | SE 18.5 | |
| Ieri h: 05:55 | Sereno | 32 | 17 | 40 | 1008 | 10 | SE 18.5 | |
| Ieri h: 05:35 | Sereno | 32 | 17 | 40 | 1008 | 10 | S/SE 16.7 | |
| Ieri h: 05:15 | Sereno | 32 | 17 | 40 | 1008 | 10 | SE 22.2 | |
| Ieri h: 04:55 | Sereno | 32 | 17 | 40 | 1008 | 10 | SE 20.3 | |
| Ieri h: 04:35 | Sereno | 32 | 17 | 40 | 1008 | 10 | SE 22.2 | |
| Ieri h: 04:15 | Nuvoloso | 31 | 18 | 45 | 1008 | 10 | SE 25.9 | |
| Ieri h: 03:55 | Molto Nuvoloso | 31 | 18 | 45 | 1008 | 10 | SE 25.9 | |
| Ieri h: 03:35 | Temporale nelle vicinanze | 31 | 18 | 45 | 1008 | 10 | SE 33.3 | |
| Ieri h: 03:15 | Temporale nelle vicinanze | 32 | 17 | 40 | 1008 | 10 | SE 38.8 | |
| Ieri h: 02:55 | Poco Nuvoloso | 32 | 17 | 40 | 1007 | 10 | SE 31.5 | |
| Ieri h: 02:35 | Molto Nuvoloso | 32 | 18 | 43 | 1007 | 10 | SE 31.5 | |
| Ieri h: 02:15 | Poco Nuvoloso | 32 | 18 | 43 | 1008 | 10 | SE 33.3 | |
| Ieri h: 01:55 | Sereno | 33 | 18 | 41 | 1008 | 10 | SE 24 | |
| Ieri h: 01:35 | Sereno | 33 | 17 | 38 | 1008 | 10 | SE 25.9 | |



